Flag for Bosnia-Herzegovina Weather past 2 weeks in Sarajevo, Bosnia-Herzegovina

Now
63 °F

Fog.


Feels Like: 63 °F
Forecast: 58 / 69 °F
Wind: 3 mph from Southeast

Location: Sarajevo / Butmir

Current Time: Aug 23, 2014 at 5:58:40 AM

Latest Report: Aug 23, 2014 at 5:30 AM


Visibility: 2 mi

Pressure: 30.07 "Hg

Humidity: 94%

Dew point: 61 °F

Location of SarajevoLocation

Historic Weather in Sarajevo — Graph

°F

Sarajevo temperature yesterday

Maximum temperature yesterday: 81 °F (at 4:00 PM)
Minimum temperature yesterday: 59 °F (at 6:00 AM)
Average temperature yesterday: 69 °F

Past Weeks' High & Low Weather Summary

 TemperatureHumidityPressure
High91 °F (Aug 12, 4:30 PM)100% (Aug 8, 4:00 AM)30.12 "Hg (Aug 8, 4:00 AM)
Low48 °F (Aug 18, 4:00 AM)26% (Aug 13, 2:00 PM)29.83 "Hg (Aug 14, 11:00 AM)
Average69 °F72%30.02 "Hg
* Reported Aug 8 4:00 AM — Aug 23 4:00 AM, Sarajevo, Weather by CustomWeather, © 2014

Note: Actual official high and low records may vary slightly from our data, if they occured in-between our weather recording intervals... More about our weather records

Advertising

Sarajevo weather history for previous 24 hours

 ConditionsComfort  
Time TempWeatherWind HumidityBarometerVisibility
4:00 AM
Aug 23
63 °FFog.3 mph94%30.07 "Hg2 mi
3:00 AM61 °FFog.No wind100%30.07 "Hg3 mi
2:00 AM61 °FClear.No wind94%30.07 "Hg10 mi
1:00 AM61 °FClear.1 mph94%30.07 "Hg10 mi
12:00 AM63 °FClear.1 mph94%30.07 "Hg10 mi
11:00 PM
Aug 22
64 °FClear.1 mph94%30.07 "Hg10 mi
10:30 PM64 °FClear.2 mph94%30.07 "Hg10 mi
10:00 PM66 °FClear.1 mph88%30.07 "Hg10 mi
9:30 PM66 °FClear.2 mph88%30.07 "Hg10 mi
9:00 PM68 °FClear.1 mph83%30.07 "Hg10 mi
8:30 PM68 °FPassing clouds.2 mph83%30.04 "HgN/A
8:00 PM68 °FPassing clouds.3 mph78%30.04 "HgN/A
7:30 PM70 °FPassing clouds.3 mph78%30.04 "HgN/A
7:00 PM73 °FPassing clouds.2 mph69%30.04 "HgN/A
6:30 PM73 °FPassing clouds.12 mph69%30.04 "HgN/A
6:00 PM79 °FPassing clouds.7 mph61%30.01 "HgN/A
5:30 PM81 °FPassing clouds.2 mph58%29.98 "HgN/A
5:00 PM81 °FPassing clouds.2 mph54%30.01 "HgN/A
4:30 PM81 °FPassing clouds.2 mph54%30.01 "HgN/A
4:00 PM81 °FPassing clouds.2 mph58%30.01 "HgN/A
3:30 PM79 °FPassing clouds.7 mph61%30.01 "HgN/A
3:00 PM79 °FPassing clouds.3 mph58%30.01 "HgN/A
2:30 PM79 °FPassing clouds.5 mph61%30.01 "HgN/A
2:00 PM77 °FPassing clouds.3 mph61%30.04 "HgN/A
1:30 PM77 °FPassing clouds.3 mph57%30.04 "HgN/A
1:00 PM77 °FPassing clouds.1 mph57%30.04 "HgN/A
12:30 PM75 °FPassing clouds.2 mph61%30.04 "HgN/A
12:00 PM73 °FPassing clouds.2 mph65%30.04 "HgN/A
11:30 AM72 °FPassing clouds.2 mph69%30.04 "HgN/A
11:00 AM72 °FPassing clouds.1 mph69%30.07 "HgN/A
10:30 AM70 °FPassing clouds.2 mph73%30.07 "HgN/A
10:00 AM68 °FPassing clouds.2 mph73%30.07 "HgN/A
9:30 AM68 °FPassing clouds.1 mph78%30.07 "HgN/A
9:00 AM63 °FPassing clouds.1 mph94%30.07 "HgN/A
8:30 AM63 °FPassing clouds.2 mph94%30.07 "HgN/A
8:00 AM61 °FPassing clouds.5 mph100%30.07 "HgN/A
7:30 AM61 °FPassing clouds.2 mph100%30.07 "HgN/A
7:00 AM59 °FPassing clouds.2 mph100%30.07 "HgN/A
6:30 AM59 °FPassing clouds.2 mph100%30.07 "HgN/A
6:00 AM59 °FPassing clouds.1 mph94%30.07 "HgN/A
5:30 AM61 °FPassing clouds.2 mph94%30.07 "Hg4 mi
5:00 AM61 °FLight rain. Passing clouds.5 mph100%30.07 "Hg4 mi
Weather by CustomWeather, © 2014

See weather overviewHow to use our weather pages